La Barousse Balès - 11/08/2013

Cyclosportive 117 Km


Pl Do. Nom - Surname Prénom - Name S-Cat /cat Club - Team TEMPS - Time Km/h /sx
1 535 BAZALGETTE ROMAIN MA 1 GSC BLAGNAC 03:41:00 31,8 1
2 570 CAMBUS NICOLAS MA 2 CAP VERT VTT 03:41:00 31,8 2
3 382 FLORES COUDERC GERAUD MA 3 AS MURET 03:41:01 31,8 3
4 429 GUIMBERTAUD GUILLAUME MB 1 PAU TRIATHLON 03:43:59 31,3 4
5 637 SAVE JEROME MB 2 AS L'UNION TRIATHLON 03:44:00 31,3 5
6 515 COUTINHO AUGUSTE MD 1 NL 03:44:01 31,3 6
7 623 BRUGUIERE FRANCK MA 4 GPCC 03:44:51 31,2 7
8 468 TORRES FRANCIS MC 1 UV AUCH GERS 03:46:10 31,0 8
9 710 ALLEMAND ARNAUD MA 5 AS MURET CYCLISTE 03:48:42 30,7 9
10 584 PETROLINI STEPHANE MC 2 PYRENEES TEAM LUCHON 03:49:39 30,6 10
11 489 SARTORI JEROME MC 3 CPRS PINS JUSTARET VILLATE 03:51:22 30,3 11
12 620 HENLEY SIMON MA 6 BRITISH 03:52:03 30,3 12
13 446 HALL STEVEN MC 4 UV LOURDES 03:52:03 30,3 13
14 533 LACAZE GUILHEM MA 7 SCOTT SPORTS INTERNATIONAL 03:53:01 30,1 14
15 708 GONZALEZ JULIEN MB 3 NL 03:53:01 30,1 15
16 356 GONCALVES GILLES MD 2 CABE 47 ECO CYCLO 03:53:02 30,1 16
17 551 PASCAL JOEL MA 8 PYRENEES INTERNATIO 03:53:06 30,1 17
18 582 PETROLINI ENZO MA 9 NL 03:53:08 30,1 18
19 540 LE BESQ NICOLAS MB 4 AC CENTULOISE 03:56:31 29,7 19
20 510 QUATTRUCCI ROMAIN MB 5 NL 03:56:43 29,7 20
21 560 BRAZET JEAN-LOUIS MC 5 BALMA OLYMPIQUE 03:57:45 29,5 21
22 547 PAVAN MICKAÊL MA 10 AMICALE LAIQUE VARES 03:57:45 29,5 22
23 424 BRUNE THOMAS MA 11 NL 03:57:45 29,5 23
24 405 MAZET SEBASTIEN MC 6 COUSERANS CYCLISTE 03:57:45 29,5 24
25 334 PARENT YAN MB 6 NL 03:57:45 29,5 25
26 467 BONNET JEAN-LUC MC 7 BALMA VELO SPRINT 31 03:57:46 29,5 26
27 544 GODICHAUD MATTHIEU MB 7 ST-GO CYCLISTE 03:57:47 29,5 27
28 642 GAUVIN SYLVAIN MB 8 USAL 04:00:03 29,2 28
29 689 MIQUEL DANIEL MD 3 LE FOUSSERET 04:00:25 29,2 29
30 709 DIMNET THOMAS MB 9 EC MONTESQUIEU 04:01:00 29,1 30
31 433 SAJAS PATRICK MC 8 ST-GAUDENS CYCLISME 04:01:43 29,0 31
32 604 PIKABEA JOSEPH MA 12 NL 04:01:43 29,0 32
33 607 ZELAIETA GAIZKA MB 10 RFEL 04:01:43 29,0 33
34 462 COURTADE YOAN MB 11 US PLAISANCE CYCLISME 04:01:44 29,0 34
35 666 BOUE MARC MC 9 NL 04:02:27 29,0 35
36 594 DUSSAUD MICHEL MD 4 CYCLO CLUB CARS 04:02:28 29,0 36
37 414 MARTIN JEAN-NOËL MD 5 NL 04:04:00 28,8 37
38 318 GIRARD LUDOVIC MA 13 NL 04:05:03 28,6 38
39 695 PENOT XAVIER MC 10 BALMA VELO SPRINT 04:05:04 28,6 39
40 487 DURAND SIMON MB 12 AC BAGNERES DE BIGORRE 04:06:02 28,5 40
41 504 VERGER FREDERIC MC 11 AS UNION 04:06:02 28,5 41
42 598 FAJOL JEROME MC 12 PC 04:06:02 28,5 42
43 516 LABISTE GABRIEL MC 13 NL 04:06:04 28,5 43
44 688 MOUDENS JÉRÔME MB 13 AC LE FOUSSERET 04:06:06 28,5 44
45 357 GILLET ROMUALD MC 14 SJVC MONTELIMAR 04:06:07 28,5 45
46 404 GRAIGNIC BENJAMIN MA 14 US COLOMIERS 04:06:45 28,4 46
47 614 TUFFET PHILIPPE MB 14 MANDELIEU SPRINT 04:06:45 28,4 47
48 541 CHEDOTAL REGIS MC 15 UCA 04:06:46 28,4 48
49 641 LAGASSA FABRICE MC 16 DEJANTES 04:06:46 28,4 49
50 626 GABAS LAURENT MB 15 AVC LIBOURNE 04:07:21 28,4 50
51 502 DECAMPS FABIEN MA 15 ST-GAUDENS CYCLISME 04:07:21 28,4 51
52 612 TISTOUNET JEROME MB 16 MONTREJEAU CYCLOS CLUB 04:07:22 28,4 52
53 638 LABORDE TEDDY MA 16 NL 04:07:24 28,4 53
54 371 DELMAS VINCENT MB 17 A.S.L'UNION TRIATHLON 04:07:30 28,4 54
55 687 MILHORAT YANNICK MB 18 AC FOUSSERET 04:08:44 28,2 55
56 526 OLLIER JEAN-CHRISTOPHE MC 17 MONTREJEAU CYCLOS CLUB 04:08:45 28,2 56
57 394 SENTENAC PASCAL MB 19 COUSERANS CYCLISTE 04:08:45 28,2 57
58 511 MAZET CHRISTOPHE MC 18 NL 04:08:46 28,2 58
59 559 DADENNE DAVID MB 20 MONTECH AS CYCLO 04:09:16 28,2 59
60 583 PETROLINI MARTINE FW2 1 PYRENEES TEAM LUCHON 04:09:39 28,1 1
61 319 DUMON PIERRE-OLIVIER MA 17 SAM MERIGNAC 04:09:50 28,1 60
62 609 SOULE JULIEN MA 18 MONTREJEAU CYCLOS CLUB 04:10:12 28,1 61
63 537 CASSAGNES JEAN-LUC MC 19 BALMA OLYMPIQUE 04:10:45 28,0 62
64 337 MANSAS JEAN LUC MC 20 BALMA OLYMPIQUE CYCLISME 04:10:46 28,0 63
65 542 SABATHE PAUL MB 21 MURET CYCLISTE 04:11:28 27,9 64
66 693 SANCHEZ FABRICE MB 22 AS MURET CYCLISTE 04:13:34 27,7 65
67 606 ETXNIKE URROZ PATXI MC 21 NL 04:13:36 27,7 66
68 431 LOPEZ SERGE MC 22 NL 04:13:58 27,6 67
69 521 KING CRAIG MC 23 NL 04:14:00 27,6 68
70 697 PAG7S ERIC MC 24 NL 04:14:00 27,6 69
71 512 RUFFIE GUILLAUME MA 19 NL 04:15:49 27,4 70
72 434 LOUBET JEAN BERTRAND MB 23 ST GO CYCLISME 04:15:50 27,4 71
73 676 DELMAS OLIVIER MC 25 NL 04:15:50 27,4 72
74 600 FERRE YANNICK MC 26 AS MURET CYCLISTE 04:15:51 27,4 73
75 701 MIALHES OLIVIER MC 27 ACF LE FOUSSERET 04:15:52 27,4 74
76 491 PUJOL PASCAL MB 24 NL 04:15:52 27,4 75
77 412 CAUMONT PASCAL MD 6 US PLAISANCE 04:15:53 27,4 76
78 684 KIEFER SOPHIE FW1 1 NL 04:16:39 27,4 2
79 686 FERNANDEZ FRÉDÉRIC MB 25 FFTRI 04:16:40 27,3 77
80 675 GROSSET MARC MB 26 AS L'UNION TRIATHLON 04:16:42 27,3 78
81 503 LAGANNE JACQUES MC 28 NL 04:16:42 27,3 79
82 568 AFONSO ALEXANDRE MA 20 V C LANNEMEZAN 04:18:27 27,2 80
83 445 DENYS JEAN-FRANÇOIS MC 29 INTEGRALE BICYCLE CLUB ISLE JOURDAIN 04:18:28 27,2 81
84 363 SCHNEIDER JEROME MB 27 VELO OCCITAN CLUB 04:18:29 27,2 82
85 589 CHAUBARD CHRISTOPHE MB 28 AC TOURNEFEUILLE 04:18:30 27,2 83
86 330 SERVANT EMMANUEL MC 30 NL 04:18:30 27,2 84
87 572 DUVERNEY PRET CHRISTOPHE MA 21 ASPTT GAILLAC 04:18:30 27,2 85
88 679 AIROLDI LAURENT MC 31 CC LUSSAN 04:18:31 27,2 86
89 360 ANDRIEU GERARD MD 7 CAMARADE SPORTS LOISIRS 04:18:35 27,1 87
90 303 BRACALI FRANCK MC 32 TEAM GSO 04:19:39 27,0 88
91 571 FERRANDEL GUY ME 1 GAILLAC 04:19:40 27,0 89
92 355 MEDAN CARLOS MD 8 NL 04:19:41 27,0 90
93 552 HEBRARD MICHEL MF 1 CYCLO CLUB PINSAGUEL 04:19:42 27,0 91
94 680 LACROIX LUDOVIC MB 29 ROUE LIBRE SAMAN 04:19:42 27,0 92
95 359 MOMBET JEAN-FRANÇOIS MC 33 INTEGRALE BICYCLE CLUB ISLE JOURDAIN 04:20:40 26,9 93
96 519 SAUBION JEROME MB 30 NL 04:20:41 26,9 94
97 518 MAUGER LIONEL MB 31 NL 04:20:41 26,9 95
98 567 LABAT FABRICE MB 32 V C LANNEMEZAN 04:20:42 26,9 96
99 312 MARTY CEDRIC MB 33 SAUBENS CY 04:20:42 26,9 97
100 471 TOURNOU STEPHANE MB 34 COUSERANS CYCLISTE 04:20:43 26,9 98
101 524 MORIER ROGER ME 2 CRAC TOURAINE 04:20:44 26,9 99
102 650 CARRIERE PASCAL MC 34 JACQUE DUPONT 04:20:45 26,9 100
103 465 MAUREL THOMAS MB 35 BALMA VELO SPRINT 31 04:20:49 26,9 101
104 370 ACAP REMY MD 9 COUSERANS CYCLISTE 04:20:51 26,9 102
105 384 PUYDEBOIS MATHIAS MC 35 COUSERANS CYCLISTE 04:21:04 26,9 103
106 635 FAVAREL JULIEN MA 22 GPCC 04:21:05 26,9 104
107 602 ZELMAT LIONEL MA 23 GPCC 04:21:06 26,9 105
108 611 SOULE GUILLAUME MA 24 MONTREJEAU CYCLOS CLUB 04:21:06 26,9 106
109 704 GERMANIER GERARD MH 1 HANDISPORT 04:21:15 26,9 107
110 649 CULLET THIERRY MA 25 VELO LOURDAIS 04:22:11 26,8 108
111 464 SALLES GREGORY MB 36 NL 04:22:11 26,8 109
112 576 SOUSSENS SYLVAIN MB 37 VC GRATELOUP 04:22:12 26,8 110
113 410 CASTEROT JEAN-CLAUDE ME 3 CYCLO LOURDAIS 04:22:12 26,8 111
114 705 FREIRE CARRASQUEIRA JOSE CARLOS MH 2 HANDISPORT 04:22:15 26,8 112
115 550 SACOURTADE CHRISTIAN MC 36 NL 04:22:15 26,8 113
116 513 DURAND MATTHIAS MA 26 NL 04:22:27 26,7 114
117 628 POTEL FREDERIC MC 37 AC FOUSSERET 04:23:25 26,6 115
118 596 LAFONT CHRISTIAN MD 10 MURET CYCLISTE 04:23:26 26,6 116
119 480 MOYA PATRICK MC 38 CORNEBARIEU VTT 04:23:28 26,6 117
120 474 GUERINEAUD ALAIN MF 2 MERIGNAC V.C. 04:24:35 26,5 118
121 700 PERISSE WILLIAM MC 39 TRIATHLON 04:24:37 26,5 119
122 200 BABEN FRANCOIS MC 40 CAC CYCLISME 04:24:37 26,5 120
123 668 CHALMETTE JEAN CHRISTOPHE MC 41 NL 04:24:41 26,5 121
124 398 DELFORGE FRANCK MC 42 SPRINTER CLUB CAZERES 04:26:11 26,4 122
125 493 DIEU CHRISTOPHE MC 43 ST-GAUDENS CYCLISME 04:26:16 26,4 123
126 438 ESPOUY GILLES MC 44 TEAM BAROUSSE 04:26:17 26,4 124
127 481 GUYOLLOT BERNARD MD 11 NL 04:26:17 26,4 125
128 579 ABEILLE PATRICE MB 38 ROUE LIBRE 04:27:54 26,2 126
129 634 ABADIE CHRISTIAN MD 12 ACF LE FOUSSERET 04:27:56 26,2 127
130 616 IDIART DANIEL MD 13 NL 04:28:28 26,1 128
131 656 LAFITE MARC ME 4 TOAC 04:29:40 26,0 129
132 417 LUCAT NICOLAS MB 39 COUSERANS CYCLISTE 04:29:41 26,0 130
133 403 ROURA EDOUARD MH 3 MURET CYCLISTE 04:29:41 26,0 131
134 490 BILLIOT LAURENT MC 45 MURET CYCLISTE 04:29:42 26,0 132
135 386 LOPEZ ERIC MC 46 CC PYRENEEN 04:29:43 26,0 133
136 448 PRAT CÉDRIC MA 27 CC PONTACQ 04:30:34 25,9 134
137 492 RUIZ GAUTHIER MA 28 VS CASTELNAUDARY 04:30:34 25,9 135
138 631 GOSSART GERARD MC 47 VC NOEUXOIS 04:30:37 25,9 136
139 361 SAINT-LARY JEAN-CLAUDE MD 14 MONTREJEAU CYCLO CLUB 04:30:40 25,9 137
140 673 DE LA TORRE DANIEL ME 5 AVENIR CYCLISTE BAGNERES 04:30:49 25,9 138
141 344 MARTIN STEPHANE MB 40 AS MATRA 04:30:51 25,9 139
142 365 CAMUS JEAN MARC MD 15 NL 04:30:51 25,9 140
143 450 LABESQUE FAURE PHILIPPE MD 16 US BREDOISE 04:32:24 25,8 141
144 400 SENTENAC CHRISTOPHHE MB 41 VELO CLUB CANTON ASPET 04:32:26 25,8 142
145 485 JOUAN SEVERINE FW1 2 TC MARTRES TOLOSANE 04:33:07 25,7 3
146 520 BOTTAREL DIDIER MC 48 NL 04:33:08 25,7 143
147 423 OLLIER LAURENT MC 49 ACCB 04:33:14 25,7 144
148 373 BLANQUIER DORIAN MB 42 MONTREJEAU CYCLO CLUB 04:33:14 25,7 145
149 569 SALSON BERNARD ME 6 NL 04:33:51 25,6 146
150 411 MOTA FRANCIS MD 17 CAHORS CYCLISME 04:33:54 25,6 147
151 435 DUCOS JEAN CLAUDE MD 18 COUSERANS CYCLISTE 04:33:59 25,6 148
152 447 STANHOPE RICHARD MD 19 BRINTISH CYCLING 04:34:14 25,6 149
153 593 BARTHE FRANCOIS MC 50 COC CARBONNE 04:34:16 25,6 150
154 601 JOLIBERT JEAN-JACQUES MD 20 AS MURET CYCLISTE 04:34:27 25,6 151
155 692 CAU JEAN-MICHEL MC 51 COMMINGES TRIATHLON 04:35:03 25,5 152
156 509 POUGET JEAN ME 7 NL 04:35:05 25,5 153
157 479 AROMATARIO CHRISTOPHE MC 52 ROUE LIBRE SAMATAISE 04:35:06 25,5 154
158 651 CALVET PATRICK MD 21 FONSEGRIVES 04:36:05 25,4 155
159 473 SOUTIRAN SYLVAIN MA 29 UC ORTHEZIENNE 04:36:09 25,4 156
160 439 ESCOUBAS CHRISTOPHE MC 53 TEAM BAROUSSE 04:36:10 25,4 157
161 531 FALEY JEAN-LUC MC 54 ALVA CYCLO SPORT 04:36:11 25,4 158
162 677 VAYSSETTES GUILLAUME MA 30 CLUB VTT CORNEBARRIEU 04:36:12 25,4 159
163 466 AMAMOU KARIM MB 43 STADE RABASTENS COUFFOULEUX 04:37:36 25,3 160
164 566 CIBAT GUY MD 22 AVENIR 04:38:18 25,2 161
165 416 MOLA PIERRE MC 55 V C ASPET 04:38:43 25,2 162
166 664 ALLUÉ PHILIPPE MD 23 UNION CYCLISTE LAVEDAN 04:38:43 25,2 163
167 482 SEVERIN NICOLAS MA 31 SPORT OLYMPIQUE SEYSSOIS 04:38:44 25,2 164
168 527 LABORDE JEAN MD 24 NL 04:38:45 25,2 165
169 662 FINOS JOEL MD 25 INTEGRALE L'ISLE JOURDAIN 04:38:46 25,2 166
170 558 WAXARZYNIEC ROMAN MA 32 NL 04:38:46 25,2 167
171 325 SABATIER BERTRAND MD 26 SAUBENS CYCLO 04:38:46 25,2 168
172 469 LETORD CHRISTIAN ME 8 US BAZAS 04:38:48 25,2 169
173 545 COULOMB DAVID MA 33 NL 04:39:48 25,1 170
174 546 LOUIS DAMIEN MB 44 NL 04:39:55 25,1 171
175 681 MARQUEVIELLE GUILLAUME MB 45 NL 04:40:04 25,1 172
176 592 FIOCCO HENRI MD 27 NL 04:40:37 25,0 173
177 321 BOUILLAC PATRICK ME 9 SPORTING CLUB MONTSEGURAIS 04:40:38 25,0 174
178 539 DELAMARCHE DANIEL MC 56 UNION CYCLISTE ARGENTEE 04:40:39 25,0 175
179 418 HIGOUNET ALEXANDRE MC 57 VC VINCENNES 04:40:39 25,0 176
180 368 LORGUEILLEUX SAMUEL MA 34 GCP 04:40:40 25,0 177
181 644 MOSSON GEOFFROY MB 46 NL 04:40:47 25,0 178
182 437 MAZELIN LIONNEL MA 35 TEAM BAROUSSE 04:40:57 25,0 179
183 477 ROUGE JEAN-MARC MD 28 UC L'ISLOIS 04:41:56 24,9 180
184 501 TRONC JEAN-LUC MD 29 CORNEBARIEU VTT 04:42:05 24,9 181
185 372 CHARBONNIER JOEL MC 58 CC PYRENEEN 04:42:51 24,8 182
186 615 LAHOUSE JEAN-MARIE MD 30 NL 04:42:52 24,8 183
187 711 THOMAS SANDRA FW2 2 NL 04:42:54 24,8 4
188 430 GOULARD YANNIS MA 36 NL 04:42:55 24,8 184
189 328 THAIS LAURENT MC 59 NL 04:43:59 24,7 185
190 646 CLAVIER FABRICE MB 47 EC BOUGUENAISIEN 04:44:03 24,7 186
191 586 MENARDO DANY MC 60 NL 04:44:31 24,7 187
192 478 MONTHIEU HERVÉ MC 61 NL 04:44:41 24,7 188
193 669 GUILLON PHILIPPE MD 31 CPRS PINS JUSTARET 04:44:45 24,7 189
194 653 BOTTOS LAURENT MA 37 VELO CLUB MONTALBANAIS 04:44:46 24,7 190
195 636 LACRAMPE CHRISTIAN MD 32 BIZANOS AVENIR 04:45:03 24,6 191
196 484 EPPINGER CHRISTOPHE MD 33 AS CRÉDIT MUTUEL 04:45:06 24,6 192
197 563 CAMBOUNET JEAN JACQUES MD 34 NL 04:45:11 24,6 193
198 553 FAGES CHRISTIAN MF 3 VARLHES 04:45:21 24,6 194
199 395 GONCALVES MANUEL MC 62 NL 04:45:22 24,6 195
200 420 DIMBARBE MICHEL MF 4 ASS SPORTIVE PYRENEENNE 04:45:22 24,6 196
201 413 CECCATO EMMANUEL MC 63 ROUE LIBRE SAMATAISE 04:46:55 24,5 197
202 655 LABOUREL FREDERIC MC 64 TOAC 04:47:06 24,5 198
203 201 DEGAUQUE PASCAL MC 65 CYCLO CLUB CASTANÉEN 04:47:06 24,5 199
204 349 MADDOX RANDALL ME 10 TEAM HEADSTRONG 04:47:06 24,5 200
205 350 MADDOX CHRISTINA FW3 1 TEAM HEADSTRONG 04:47:07 24,4 5
206 577 BUDD HELEN FW1 3 NL 04:47:07 24,4 6
207 396 DUROUSSEAU YVAN MC 66 NL 04:47:08 24,4 201
208 409 MONTEIL SERGE MD 35 TONNEINS CYCLOTOURISME 04:48:14 24,4 202
209 640 LAMANDE PATRICK MD 36 NL 04:48:16 24,4 203
210 461 FAVEREAU JEAN-JACQUES MD 37 US PLAISANCE CYCLISME 04:48:19 24,3 204
211 346 COSTES LAURENT MD 38 AS MATRA TOULOUSE 04:48:20 24,3 205
212 672 BARRA MICHEL ME 11 LABARTHE CYCLO 04:48:21 24,3 206
213 534 DARDANT PASCAL MC 67 ASCH ROCHEFORT 04:48:21 24,3 207
214 324 FALCOU ALAIN MC 68 AS MURET 04:48:22 24,3 208
215 426 CORREGE JEAN-PHILIPPE MD 39 NL 04:49:03 24,3 209
216 320 MONNIER SERGE MD 40 VELO SPORT SAUVETERRE 04:51:00 24,1 210
217 342 MALLET ERIC MC 69 VELO PASSION PERIGORD 04:51:05 24,1 211
218 475 JAMES ROBERT ME 12 LUCHON LOURON 04:51:07 24,1 212
219 588 GUILHOT PAUL MD 41 MONTREJEAU CYCLOS CLUB 04:51:07 24,1 213
220 514 HERVAS STEPHANE MC 70 MONTREJEAU CYCLOS CLUB 04:51:08 24,1 214
221 706 BOUZAFFOUR YOUNESS MA 38 LUCHON PYRÉNÉES 04:51:10 24,1 215
222 643 LARRIEU BERNARD ME 13 CLUB CYCLISTE LARDENNE 04:51:36 24,1 216
223 425 CIEUTAT CHRISTOPHE MB 48 NL 04:53:32 23,9 217
224 432 SAVIGNOL FRANCIS MD 42 CYCLO CLUB PORTESIEN 04:53:32 23,9 218
225 554 PORTOLES MARC MB 49 NL 04:54:09 23,9 219
226 678 GIRALDOU BERNARD MD 43 CYCLO DE TOURNEFEUILLE 04:54:28 23,8 220
227 366 GALINDO DENIS MD 44 SAINT-ALBAN OMNISPORT 04:54:55 23,8 221
228 449 MIGLIORINI BERNARD ME 14 SERRES-CASTET 04:54:59 23,8 222
229 388 POYET SOPHIE FW3 2 V C DU VELAY 04:55:08 23,8 7
230 389 JOUVE DIDIER MC 71 V C DU VELAY 04:55:09 23,8 223
231 532 ROMERO CLAUDE MD 45 ALVA CYCLO SPORT 04:56:06 23,7 224
232 530 HITCHCOCK CAROL FW1 4 SUNSHINE 04:56:08 23,7 8
233 393 ARSEGUEL LAURENT MC 72 LES CYCLOS DU LION 04:56:19 23,7 225
234 369 MULLER DAVID MB 50 CYCLOTOURISTE L4ISLOISE 04:57:06 23,6 226
235 463 LAPLAZA CHRISTOPHE MB 51 VC LANNEMEZAN 04:57:06 23,6 227
236 458 POMENTE FLORIAN MA 39 US PLAISANCE CYCLISME 04:57:06 23,6 228
237 549 OSPITAL ANDRE MD 46 OPTIMAX TRAININ 04:57:07 23,6 229
238 633 DAULT ARNAUD MC 73 LES DEJANTÉS 04:57:13 23,6 230
239 436 MARROT PATRICK MC 74 TEAM BAROUSSE 04:57:16 23,6 231
240 652 MONTARIOL MICHEL MC 75 NL 04:57:17 23,6 232
241 454 BOUSQUET FABRICE MB 52 NL 04:57:17 23,6 233
242 494 MARESTAN CHRISTOPHE MB 53 CSA MURET 04:58:57 23,5 234
243 648 DEJEAN SEBASTIEN MB 54 NL 04:59:04 23,5 235
244 488 MARTY JULIEN MB 55 INTEGRALE BICYCLE CLUB ISLE JOURDAIN 04:59:10 23,5 236
245 441 JEAN DANIEL ME 15 TONNEINS CYCLOTOURISME 04:59:37 23,4 237
246 311 COUGOT THIERRY MD 47 LAVAUR CYCLO 04:59:37 23,4 238
247 313 CASSEGRAIN GILBERT MD 48 NL 04:59:39 23,4 239
248 619 GRIMAL DANIEL MD 49 NL 04:59:45 23,4 240
249 696 DESPAUX DENIS MB 56 NL 04:59:59 23,4 241
250 621 WNGHT AIMEE FW1 5 NL 05:00:03 23,4 9
251 498 NIVOIS PHILIPPE MC 76 NL 05:00:03 23,4 242
252 496 OUSTRIC JOËL MC 77 TOAC 05:00:08 23,4 243
253 639 ASSOUERE GILBERT MD 50 NL 05:01:19 23,3 244
254 338 MAROTINE THIERRY MD 51 NL 05:02:43 23,2 245
255 500 SISTACH CHARLES MD 52 STONE RIDER TEAM 05:02:44 23,2 246
256 443 PINET PHILIPPE ME 16 LA BREVE 05:02:45 23,2 247
257 691 PORTE MATHIEU MB 57 NL 05:02:45 23,2 248
258 685 DOUCEDE PATRICK MD 53 MONTREJEAU CYCLOS CLUB 05:02:46 23,2 249
259 401 JUCHTZER HERVE MD 54 GUIDON CYCLO PYRENEEN 05:02:46 23,2 250
260 683 TRETON HUGUES MC 78 CS BRETIGNY 05:03:23 23,1 251
261 316 DEFRANCQ LAURENT MC 79 NL 05:03:24 23,1 252
262 670 BRUYNOOGHE LAURENT MC 80 CS BRETIGNY 05:03:24 23,1 253
263 362 ABELLAN GEORGES MD 55 CPRS PINS JUSTARET 05:03:25 23,1 254
264 406 GARRIGUES ALAIN MC 81 CV MONTASTRUC 05:03:48 23,1 255
265 476 CAZALA DAMIEN MB 58 VTT CLUB AUROIS 05:05:50 23,0 256
266 543 LAZAYRES JEAN-LOUIS ME 17 OGEU 05:06:24 22,9 257
267 556 BERLAND LUC MD 56 ST-GO CYCLISTE 05:06:46 22,9 258
268 624 LASSERRE THIERRY MD 57 NL 05:06:48 22,9 259
269 564 CAMPS STEPHANE MB 59 MONTREJEAU CYCLOS CLUB 05:06:49 22,9 260
270 617 VEILLET BRIGITTE FW3 3 NL 05:06:50 22,9 10
271 629 LITZINGER JEAN-MARIE MD 58 NL 05:06:50 22,9 261
272 407 MAURIEGE ANDRE ME 18 NL 05:06:50 22,9 262
273 525 BARTHE PHILIPPE MC 82 LUCHON PYRÉNÉES 05:06:50 22,9 263
274 587 MOWTMIRAIL DIDIER MC 83 NL 05:09:13 22,7 264
275 408 MONTEIL ROSELYNE FW2 3 TONNEINS CYCLOTOURISME 05:09:31 22,7 11
276 358 SUTRA BERNARD MD 59 NL 05:09:32 22,7 265
277 599 LOUBINEAUD JEAN-PIERRE MD 60 AST 05:09:33 22,7 266
278 660 POUTOU SERGE MD 61 C C LOURDAIS 05:11:10 22,6 267
279 595 ROBIN CATHERINE FW2 4 CYCLO CLUB CARS 05:12:05 22,5 12
280 523 CASTELLE CLAUDE MF 5 NL 05:13:59 22,4 268
281 352 MC DOUGALD GEORGE MD 62 TEAM MEADSTRONGS 05:15:19 22,3 269
282 707 LATRY JACQUES ME 19 NL 05:15:34 22,2 270
283 682 DELMAS JEAN JACQUES MF 6 NL 05:15:34 22,2 271
284 591 BRARD MICHEL MD 63 CC CASTRES GIRONDE 05:15:37 22,2 272
285 391 COUILLENS MICHEL MF 7 NL 05:15:40 22,2 273
286 374 MAGGIORANO JEAN-CHARLES MD 64 GUIDON PAVIEN 05:15:45 22,2 274
287 506 COUILLENS XAVIER MC 84 NL 05:15:46 22,2 275
288 451 FLIMM ROBERT MD 65 CRAWLEY WHEELERS 05:16:24 22,2 276
289 585 CONGDON DICK ME 20 NL 05:16:25 22,2 277
290 345 NONY FRANCK MC 85 AS MATRA TOULOUSE 05:18:13 22,1 278
291 332 MORIN PHILIPPE MC 86 NL 05:18:16 22,1 279
292 590 AYRAL CRIS MB 60 NL 05:18:42 22,0 280
293 390 CASTEX JEAN-PIERRE MC 87 NL 05:18:44 22,0 281
294 415 MALLET OLIVIER MC 88 ST GO CYCLISME 05:18:48 22,0 282
295 375 LAUGA ALAIN MD 66 GUIDON PAVIEN 05:18:48 22,0 283
296 379 LEZAT CHRISTIAN ME 21 MONTREJEAU CYCLO CLUB 05:18:48 22,0 284
297 674 SAINTIGNAN FRANCIS ME 22 LE FOUSSERET 05:18:49 22,0 285
298 470 AUDRY JEAN-MARC MD 67 AVENIR CYCLISTE BAGNERES 05:20:28 21,9 286
299 402 SAURIN FRANCIS ME 23 C C PINEUILH 05:20:29 21,9 287
300 428 TELMON PHILIPPE MC 89 C C LOURDAIS 05:20:44 21,9 288
301 341 GIRARD JEAN-LOUIS MD 68 GAZELEC GIRONDIN 05:21:54 21,8 289
302 528 PLIQUE FRANÇOISE FW3 4 NL 05:22:00 21,8 13
303 529 POUGET CHRISTIAN MD 69 NL 05:22:01 21,8 290
304 442 MOIZO MICHEL MF 8 TONNEINS CYCLOTOURISME 05:22:02 21,8 291
305 397 COURTEILLE GERARD MD 70 TEAM CHARTRES CYCLO 05:23:46 21,7 292
306 399 PAILLETTE GILBERT MD 71 LES BLEUETS MIRANDAIS 05:23:51 21,7 293
307 561 BONNASSIE VINCENT MC 90 GUIDON MACARIEN 05:23:59 21,7 294
308 483 FAVALESSA JEROME MC 91 SPRINTER CAZERES 05:24:25 21,6 295
309 340 PEREZ BERNARD ME 24 NL 05:24:49 21,6 296
310 536 CASSAGNEAU JEROME MB 61 VELOCE CLUB MONTALBANANAK 05:25:27 21,6 297
311 712 MACLEOD DONNA FW3 5 AUCKLAND CITY 05:26:06 21,5 14
312 575 BARBICHE PIERRE MC 92 NL 05:26:07 21,5 298
313 472 GODART FREDERIC MC 93 NL 05:26:55 21,5 299
314 667 HERMET THIERRY MC 94 ST LYS VELO CLUB 05:27:01 21,5 300
315 499 GONZALEZ SEBASTIEN MC 95 TOAC 05:27:06 21,5 301
316 578 MALLEAN LARA FW2 5 NL 05:27:09 21,5 15
317 422 DELAS MICHEL MF 9 US BAZAS 05:27:09 21,5 302
318 302 GROLEAU ERIC MD 72 NL 05:27:18 21,4 303
319 580 SFILIGOI BENOIT MC 96 GUIDON BIASSAIS 05:27:18 21,4 304
320 367 GINER BRUNO MD 73 SAUBENS CYCLO 31 05:28:09 21,4 305
321 304 PAUL MARC MD 74 SAUBENS CYCLO 31 05:28:12 21,4 306
322 632 BEYRIA YVES MC 97 SAUBENS CYCLO 05:28:12 21,4 307
323 383 PREPOGNOT BERNARD MF 10 SAUBENS CYCLO 31 05:28:13 21,4 308
324 486 CHAVANT VALÉRIE FW2 6 AS CRÉDIT MUTUEL 05:28:17 21,4 16
325 522 MCKIE ALASTAIR ME 25 ESPAGNE 05:28:19 21,4 309
326 573 DUPUY BERNARD MD 75 LA ROUE LIBRE HUOSSAISE 05:31:25 21,2 310
327 630 LAPUYADE DIDIER MD 76 CYCLO AURIGNAC 05:31:25 21,2 311
328 301 LYAUTEY HERVE ME 26 LUCHON LOU 05:31:25 21,2 312
329 376 TOURREILLE DANIEL MD 77 GUIDON PAVIEN 05:34:13 21,0 313
330 326 SAVARY JEAN-BERNARD MD 78 NL 05:34:13 21,0 314
331 548 LEON PHILIPPE MF 11 BIDART 05:34:15 21,0 315
332 339 RICARD PATRICK MD 79 LABARTHE CYCLO 05:36:49 20,8 316
333 647 DEFFRENNES DIMITRI MD 80 TRIATHLON ST PAUL 05:36:50 20,8 317
334 387 NOGUES MICHEL MD 81 C C LOURDAIS 05:36:50 20,8 318
335 658 FOSSARD LIONEL MC 98 CC LOURDAIS 05:36:51 20,8 319
336 625 LURDE ANDRE MD 82 CC BOULONNAIS 05:36:53 20,8 320
337 343 ROUX GÉRALD MB 62 NL 05:37:54 20,8 321
338 613 MAS JEAN MC 99 HUOS 05:38:33 20,7 322
339 323 THIMONIER RAYMOND MF 12 NL 05:39:22 20,7 323
340 505 VERGER THIERRY MD 83 AS UNION 05:42:57 20,5 324
341 671 PAILLAS PHILIPPE MB 63 NL 05:42:57 20,5 325
342 452 BORDIER GÉRARD MF 13 CAMPAN VALLEE 05:42:59 20,5 326
343 354 REYNOLDS ASHLEY FW3 6 NL 05:44:50 20,4 17
344 329 ECHCHICK YOANN MA 40 NL 05:45:41 20,3 327
345 538 LOCCI SERGE MD 84 NL 05:47:28 20,2 328
346 562 BARBEAU PATRICK MD 85 NL 05:47:30 20,2 329
347 385 SEGURA JEAN MD 86 NL 05:47:30 20,2 330
348 663 ZUBIETA JEAN YVES MD 87 C C PONTAQUAIS 05:47:30 20,2 331
349 659 DALEAS JACQUES MC 100 C C LOURDAIS 05:47:32 20,2 332
350 694 LASSUS JEAN-PIERRE MC 101 ST GO CYCLISME CGE 05:47:34 20,2 333
351 353 REYNOLDS THOMAS MD 88 TEAM HEADSTRONG 05:47:35 20,2 334
352 699 COLLEONI CHRISTIAN MD 89 ESG GIMONT 05:52:58 19,9 335
353 327 SAVARY FLORENCE FW3 7 NL 05:53:11 19,9 18
354 497 BAQUE JULIEN MA 41 ROUE LIBRE SAMAN 05:53:37 19,9 336
355 347 FOURCADE DIMITRI MA 42 C.R. MIDI PYRENEES 05:53:38 19,9 337
356 622 BOUZIN JEAN-MARC MC 102 NL 05:53:40 19,8 338
357 331 MADIEU STEPHANE MD 90 NL 05:53:45 19,8 339
358 377 THOUY SERGE MD 91 VELO CLUB BLAYAIS 05:54:43 19,8 340
359 657 LORTEIGT MICHEL ME 27 C C PONTAQUAIS 05:54:46 19,8 341
360 574 RIOU STEPHANE MB 64 GRATELOUP VC 05:54:46 19,8 342
361 453 PECHBERTY MATTHIEU MD 92 NL 05:55:03 19,8 343
362 421 LESCOS JEAN-BERNARD MD 93 UC LEHAILLAN 05:56:07 19,7 344
363 444 SIMON LAURENT MD 94 UC LE HAILLAN - ST MEDARD 05:56:14 19,7 345
364 507 LEMERCIER HENRI ME 28 NL 05:56:14 19,7 346
365 308 REYNES PIERRE MC 103 CYCLO LAVAUR 05:58:18 19,6 347
366 333 KIESER MICHEL ME 29 NL 05:58:46 19,6 348
367 306 BESSON JACQUELINE FW3 8 CC PYRENEEN 06:03:06 19,3 19
368 661 BUZY HENRI MD 95 C C PONTAQUAIS 06:07:33 19,1 349
369 348 RICHMOND NANCY FW2 7 NL 06:07:57 19,1 20
370 351 KINNEY APRIL FW2 8 TEAM MEADSTRONG 06:07:58 19,1 21
371 381 TOULOUSE SEBASTIEN MB 65 US FRONTON 06:08:31 19,0 350
372 698 CLERFAYT FREDERIC MD 96 NL 06:08:39 19,0 351
373 460 SEMENT JEAN-PIERRE MF 14 US PLAISANCE CYCLISME 06:14:36 18,7 352
374 310 REYNES JEAN ME 30 NL 06:14:39 18,7 353
375 322 THIMONIER DANIELLE FW3 9 NL 06:21:46 18,4 22
376 508 FAZEUILLE ERIC MC 104 NL 06:23:04 18,3 354
377 603 BORREGO MIGUEL MA 43 ASPTT GAILLAC 06:24:28 18,3 355
378 610 ECHARD SYLVAIN MB 66 NL 06:24:29 18,3 356
379 565 ADOUC JEAN-LOUIS MF 15 NL 06:29:15 18,0 357
380 336 FREDDO ODILE FW3 10 NL 06:48:31 17,2 23
381 627 LEMER JACKY ME 31 CC BOULONNAIS 06:51:19 17,1 358
382 456 BON JEAN-FRANÇOIS MD 0 NL 00:00:00 Abd Abd
383 654 BOLTOS J.C. MD 0 VELO CLUB MAUVEZIN 00:00:00 Abd Abd
384 690 LACROIX JÉRÖME MB 0 NL 00:00:00 Abd Abd
385 665 HERMET DIDIER MF 0 LA PAULABE 05:14:52 Abd Abd
386 364 LOUP CHRISTIAN MC 0 BASSAC LACAUNE VTT CLUB 06:20:19 Abd Abd
387 517 VALLEE NICOLAS MB 0 NL 06:20:22 Abd Abd